sat.trackr.live / text

‹ back to catalog

STARLINK-11346 [DTC]

NORAD 61697 · 2024-195L

PAYLOAD ACTIVE UNKNOWN

§ Identity

Operator
Country
US
Launch date
2024-10-30
Launch site
AFWTR
Launch vehicle
Mass (kg)
RCS (m²)

Purposes: comms

External: N2YO · Heavens-Above · Gunter

§ Orbital elements

Epoch: 2026-09-21T20:04:29.716320Z

Period
91.74 min
Inclination
53.1590°
Eccentricity
0.0000925
Mean motion
15.69706048 rev/d
Perigee alt
359.1 km
Apogee alt
360.4 km
Semi-major
6,737.9 km
B*
5.2001e-6
RAAN
139.1095°
Arg perigee
71.7068°
Mean anomaly
288.4050°
Rev number
10,984

§ Raw data

STARLINK-11346 [DTC]1 61697U 24195L   26264.83645505  .00000042  00000+0  52001-5 0  99942 61697  53.1590 139.1095 0000925  71.7068 288.4050 15.69706048109842

JSON: /api/v1/satellites/61697 · /tle

For live sub-satellite position, see the globe view (requires WebGL).

§ Visibility from observer

Set your observer location to see the next 7 days of passes ≥ 10°. The values pass through the URL so the page stays shareable.

No JS? Fill the form by hand. The geolocation button needs JavaScript.